Location: Newark
(45.5167°N, 11.1667°E)
Time: 08:40:08
(UTC+00:00)

Explorer 7 - Pass Details

Date: 24 December 2019
Orbit: 485 x 679 km, 50.3° (Epoch: 24 January)

Event Time Altitude Azimuth Distance (km) Brightness Sun altitude
Rises 15:59:08 0° 294° (WNW) 3,004 11.2 -4.3°
Reaches altitude 10° 16:01:34 10° 288° (WNW) 2,103 10.5 -4.7°
Maximum altitude 16:06:10 43° 217° (SW) 951 8.7 -5.4°
Drops below altitude 10° 16:10:48 10° 147° (SSE) 2,105 9.7 -6.1°
Sets 16:13:13 0° 140° (SE) 3,007 10.5 -6.5°
